Location: Unspecified
(0.0000°N, 0.0000°E)
Time: 18:42:37
(UTC+02:00)

ATLAS 2AS CENTAUR R/B - Visible Passes

Search period start: 23 May 2018 00:00
Search period end: 02 June 2018 00:00
Orbit: 909 x 1302 km, 63.7° (Epoch: 24 April)

Date Brightness Start Highest point End Pass type
(mag) Time Alt. Az. Time Alt. Az. Time Alt. Az.
23 May 4.6 04:34:33 24° NNE 04:34:33 24° NNE 04:37:17 10° NNE visible
24 May 5.4 03:51:30 12° NE 03:51:30 12° NE 03:52:07 10° NE visible
24 May 4.7 05:38:58 15° NW 05:38:58 15° NW 05:41:02 10° NNW visible
25 May 4.8 04:55:52 18° N 04:55:52 18° N 04:57:47 10° N visible
26 May 5.2 04:12:43 14° NNE 04:12:43 14° NNE 04:13:38 10° NNE visible
